Location: Ferchesar
(52.6477°N, 12.4298°E)
Time: 03:47:22
(UTC+02:00)

Vanguard 3 - Pass Details

Date: 02 March 2021
Orbit: 508 x 3262 km, 33.3° (Epoch: 15 April)

Event Time Altitude Azimuth Distance (km) Brightness Sun altitude
Rises 12:51:10 0° 182° (S) 7,193 13.2 30.0°
Reaches altitude 10° 13:00:57 10° 159° (SSE) 6,135 12.6 29.8°
Maximum altitude 13:07:04 12° 140° (SE) 5,741 12.1 29.6°
Drops below altitude 10° 13:12:47 10° 121° (ESE) 5,668 11.7 29.4°
Sets 13:20:38 0° 96° (E) 6,120 11.5 29.1°
